Regional Weather Roundup
Issued by NWS

Home | Current Version | Previous Version | Graphics & Text | Print | Product List | Glossary Off
Versions: 1 2 3 4 5 6 7 8 9 10 11 12 13 14 15 16 17 18 19 20 21 22 23 24 25 26 27 28 29 30 31 32 33 34 35 36 37 38 39 40 41 42 43 44 45 46 47 48 49 50

000
ASUS43 KDTX 272001
RWRMI
MICHIGAN HOURLY REGIONAL WEATHER ROUNDUP
NATIONAL WEATHER SERVICE DETROIT/PONTIAC MI
400 PM EDT MON JUL 27 2015

NOTE: "FAIR" INDICATES FEW OR NO CLOUDS BELOW 12,000 FEET WITH NO
SIGNIFICANT WEATHER AND/OR OBSTRUCTION TO VISIBILITY.

MIZ047>049-052>055-059>063-066>070-074>076-081>083-272100-
SOUTHEAST LOWER MICHIGAN

CITY           SKY/WX    TMP DP  RH WIND       PRES   REMARKS
ADRIAN         SUNNY     86  59  39 SE12      30.04S
ALMA           SUNNY     87  59  38 CALM      30.05R
ANN ARBOR      SUNNY     87  60  40 SE8       30.02F
BAD AXE        PTSUNNY   86  61  41 CALM      30.04S
CARO           SUNNY     87  62  42 CALM      30.03S
DETROIT CITY   SUNNY     86  59  39 E9        30.03F
DETROIT        PTSUNNY   88  60  38 E5        30.02F
FLINT          SUNNY     89  61  38 VRB3      30.04S
GROSSE ILE     SUNNY     84  64  51 S7        30.01F
HILLSDALE      SUNNY     84  60  42 E9        30.05S
HOWELL         SUNNY     88  55  32 E5        30.04S

CITY           SKY/WX    TMP DP  RH WIND       PRES   REMARKS
JACKSON        SUNNY     87  58  37 VRB7      30.04S
LAMBERTVILLE   SUNNY     85  61  45 E6        30.03S
LANSING        SUNNY     87  62  43 E7        30.04S
LAPEER         FAIR      88  56  34 CALM      30.04F
MASON          SUNNY     84  58  41 CALM      30.04S
MONROE         SUNNY     84  63  49 E7        30.02S
MT. CLEMENS    MOSUNNY   86  60  40 E8        30.02F
PONTIAC        MOSUNNY   88  56  33 SE5       30.03F
PORT HOPE        N/A     80  66  62 SE9       30.03S
PORT HURON     SUNNY     88  57  35 S5        30.02F
TRI CITIES     SUNNY     89  64  43 SW5       30.04S HX  90
MIDLAND        FAIR      90  58  34 SW5       30.02S
TROY           SUNNY     90  55  30 S7        30.04F
SAGINAW HB     MOSUNNY   88  57  35 SW3       30.03R
$$
MIZ043>046-050>051-056>058-064>065-071>073-077>080-272100-
SOUTHWEST LOWER MICHIGAN

CITY           SKY/WX    TMP DP  RH WIND       PRES   REMARKS
BATTLE CREEK   SUNNY     86  63  45 VRB7      30.05R
BENTON HARBOR  MOSUNNY   88  63  43 E8        30.01S
BIG RAPIDS     PTSUNNY   88  53  30 CALM      30.04S
COLDWATER      SUNNY     82  61  47 E7        30.04R
FREMONT        FAIR      89  53  29 S3        30.03S
HOLLAND        MOSUNNY   89  61  38 SE8       30.04R
GRAND RAPIDS   MOSUNNY   88  63  43 E10       30.04R
IONIA          FAIR      87  61  42 CALM      30.04R
KALAMAZOO      MOSUNNY   87  63  44 VRB7      30.04R
LUDINGTON      SUNNY     86  64  48 W7        30.05S
MARSHALL       SUNNY     86  63  46 SE5       30.04S
MOUNT PLEASANT SUNNY     89  57  33 CALM      30.03S
MUSKEGON       PTSUNNY   90  56  31 SW8       30.03S
SOUTH HAVEN    MOSUNNY   86  58  38 E6        30.02S
$$
MIZ016>042-272100-
NORTHERN LOWER MICHIGAN

CITY           SKY/WX    TMP DP  RH WIND       PRES   REMARKS
ALPENA         MOSUNNY   89  64  43 SE6       30.02S HX  90
BEAVER ISLAND  SUNNY     84  62  46 W5        30.03F
BELLAIRE       SUNNY     89  57  34 W7        30.02S
CADILLAC       MOSUNNY   88  56  34 E8        30.05S
CHARLEVOIX     SUNNY     81  63  54 W8        30.06S
FRANKFORT      SUNNY     86  60  41 W9        30.04S
GAYLORD        MOSUNNY   90  56  31 NE6       30.05S
GRAYLING       SUNNY     89  57  33 W6        30.04F
HARBOR SPRINGS SUNNY     81  65  58 SW6       30.02F
HOUGHTON LAKE  SUNNY     89  51  27 SW7       30.05S
MANISTEE       SUNNY     84  57  39 NW10      30.05R
OSCODA         SUNNY     88  56  33 E17G23    30.01S
PELLSTON       SUNNY     92  54  27 N12       30.02  HX  90
ROGERS CITY    SUNNY     83  63  52 N3        30.03S
TRAVERSE CITY  MOSUNNY   89  62  40 NE8       30.01S
$$
MIZ007>008-015-272100-
EASTERN UPPER MICHIGAN

CITY           SKY/WX    TMP DP  RH WIND       PRES   REMARKS
KINROSS        SUNNY     90  52  27 NW7       30.01R
MACKINAC ISLAN SUNNY     83  61  48 SW7       30.02F
$$
MIZ004>006-011>014-085-272100-
CENTRAL UPPER MICHIGAN

CITY           SKY/WX    TMP DP  RH WIND       PRES   REMARKS
ESCANABA       SUNNY     86  57  37 S10       30.01S
MENOMINEE      SUNNY     86  63  45 SW7       30.02S
SAWYER-GWINN   MOSUNNY   84  61  45 CALM      30.03F
$$
MIZ001>003-009>011-084-272100-
WESTERN UPPER MICHIGAN

CITY           SKY/WX    TMP DP  RH WIND       PRES   REMARKS
IRON MOUNTAIN  SUNNY     90  55  30 SW7       30.03S
HOUGHTON       MOSUNNY   87  66  49 NW9       30.00S
COPPER HARBOR    N/A     70  61  73 NE6       29.99S
IRONWOOD       SUNNY     88  57  35 S10G18    29.97F
$$

ABBREVIATIONS USED IN REMARKS
   TC - TEMPERATURE IN CELSIUS
  WCI - WIND CHILL INDEX
   HX - HEAT INDEX
  VSB - VISIBILITY




USA.gov is the U.S. government's official web portal to all federal, state and local government web resources and services.